Starlink 32465

operational
NORAD ID: 61716 Int'l Des: 2024-196 Owner: SPXS Country: US Constellation: starlink
LEOCIRCULAR

Über Starlink 32465

Beschreibung wird geladen...

Live-Position

3D-Globus wird geladen...

Nächste Überflüge

Höhenverlauf

Altitude vs Time

uPlot chart will show altitude changes over time

Zweizeiliger Elementsatz

1 61716U 24196K 25259.10971347 -.00001401 00000-0 -35191-4 0 9999
2 61716 53.1600 192.5306 0001228 84.2856 275.8284 15.30183496 50427
Epoch: 16. Sept. 2025 • Age: 16 hours

Aktueller Status

Höhe 477.3 km
Geschwindigkeit 7.63 km/s
Subsatellitenpunkt 35.45°N, 52.11°W
Startdatum 30. Okt. 2024
Alter 0.8 years
Typ internet

Technische Details

Klassifizierung Payload
Masse 730.00 kg
Trockenmasse 700.00 kg
Gesamtmasse 730.00 kg
Länge 0.30 m
Durchmesser 4.10 m
Spannweite 29.00 m
Form Box + pan
Hersteller SPXS
Bus-Typ Starlink V2M
Phasenstatus In Orbit
Besitzer/Staat SPXS/US

Große Konstellationen

Loading constellations...